Anniston, AL

9:20 PM CST on November 21, 2019 (GMT -0600)
Anniston Metro

Weather History for KANB - September, 2019

Change the Weather History Date:

Monday, September 16, 2019

  Actual Average Record
Temperature  
Mean Temperature 84 °F 74 °F  
Max Temperature 98 °F 84 °F 99 °F (1980)
Min Temperature 69 °F 63 °F 48 °F (1961)
Degree Days  
Heating Degree Days 0    
Month to date heating degree days 0  
Since 1 July heating degree days 0  
Cooling Degree Days 18    
Growing Degree Days 34 (Base 50)    
Moisture  
Dew Point 66 °F    
Average Humidity 59    
Maximum Humidity 90    
Minimum Humidity 27    
Precipitation  
Precipitation 0.00 in 0.09 in 4.48 in (2004)
Month to date precipitation 0.42 1.59  
Year to date precipitation 39.59 36.51  
Sea Level Pressure  
Sea Level Pressure 30.03 in    
Wind  
Wind Speed 3 mph (NE)    
Max Wind Speed 13 mph    
Max Gust Speed 16 mph    
Visibility 10 miles    
Events      
T = Trace of Precipitation, MM = Missing Value Source: NWS Daily Summary

Daily Weather History Graph

Daily Weather History Graph

Search for Another Location

Airport or City:

Astronomy

Sep. 16, 2019 Rise Set
Actual Time 6:27 AM CDT 6:48 PM CDT
Civil Twilight 6:02 AM CDT 7:13 PM CDT
Nautical Twilight 5:33 AM CDT 7:42 PM CDT
Astronomical Twilight 5:03 AM CDT 8:12 PM CDT
Moon 8:29 PM CDT (9/16) 8:29 AM CDT (9/16)
Length of Visible Light 13h 11m
Length of Day
12h 21m
Waning Gibbous, 94% of the Moon is Illuminated
Sep 16
Waning Gibbous
Sep 21
Last Quarter
Sep 28
New
Oct 5
First Quarter
Oct 13
Full

Hourly Weather History & Observations

Time (CDT) Temp. Heat Index Dew Point Humidity Pressure Visibility Wind Dir Wind Speed Gust Speed Precip Events Conditions
12:53 AM 72.0 °F - 68.0 °F 87% 30.06 in 10.0 mi East 3.5 mph - N/A   Clear
1:53 AM 73.0 °F - 68.0 °F 84% 30.05 in 10.0 mi ENE 3.5 mph - N/A   Clear
2:53 AM 72.0 °F - 66.9 °F 84% 30.04 in 10.0 mi NNE 3.5 mph - N/A   Clear
3:53 AM 72.0 °F - 66.9 °F 84% 30.05 in 10.0 mi NNE 4.6 mph - N/A   Clear
4:53 AM 70.0 °F - 66.9 °F 90% 30.06 in 10.0 mi Calm Calm - N/A   Clear
5:53 AM 70.0 °F - 66.9 °F 90% 30.07 in 10.0 mi Calm Calm - N/A   Clear
6:53 AM 70.0 °F - 66.9 °F 90% 30.09 in 9.0 mi Calm Calm - N/A   Clear
7:53 AM 73.9 °F - 68.0 °F 82% 30.10 in 10.0 mi NE 4.6 mph - N/A   Clear
8:53 AM 79.0 °F - 69.1 °F 72% 30.11 in 10.0 mi East 4.6 mph - N/A   Clear
9:53 AM 84.0 °F 87.8 °F 69.1 °F 61% 30.10 in 10.0 mi ENE 4.6 mph - N/A   Clear
10:53 AM 88.0 °F 91.4 °F 68.0 °F 51% 30.08 in 10.0 mi ENE 3.5 mph - N/A   Clear
11:53 AM 91.9 °F 95.9 °F 68.0 °F 45% 30.06 in 10.0 mi Variable 3.5 mph - N/A   Clear
12:53 PM 95.0 °F 97.0 °F 64.0 °F 36% 30.03 in 10.0 mi North - - N/A   Clear
2:53 PM 97.0 °F 96.9 °F 60.1 °F 29% 29.98 in 10.0 mi NE 6.9 mph - N/A   Clear
3:53 PM 96.1 °F 94.8 °F 57.0 °F 27% 29.97 in 10.0 mi NNW 6.9 mph - N/A   Clear
4:53 PM 96.1 °F 95.2 °F 57.9 °F 28% 29.96 in 10.0 mi Variable 3.5 mph - N/A   Clear
5:53 PM 95.0 °F 95.2 °F 61.0 °F 32% 29.96 in 10.0 mi NNW 5.8 mph - N/A   Clear
6:53 PM 91.0 °F 91.9 °F 63.0 °F 39% 29.96 in 10.0 mi Calm Calm - N/A   Clear
7:53 PM 79.0 °F - 66.9 °F 66% 29.97 in 10.0 mi Calm Calm - N/A   Clear
8:53 PM 75.9 °F - 66.9 °F 74% 29.98 in 10.0 mi Calm Calm - N/A   Clear
9:53 PM 77.0 °F - 66.9 °F 71% 29.99 in 10.0 mi East 3.5 mph - N/A   Clear
10:53 PM 73.0 °F - 66.9 °F 81% 29.99 in 10.0 mi Calm Calm - N/A   Clear